| time (UTC) | temp F | wind direction | speed MPH | gust MPH | rain 1hr in | rain 24hr in | rain mn in | humidity % | barometer mb |
| 20260903140053 | 61 | 221 | 5.0 | 11.0 | 0.00 | 0.20 | 0.06 | 76 | 1008.9 |
| 20260903134558 | 61 | 246 | 3.0 | 15.0 | 0.00 | 0.20 | 0.06 | 74 | 1009.1 |
| 20260903133109 | 61 | 242 | 5.0 | 13.0 | 0.00 | 0.20 | 0.06 | 75 | 1009.3 |
| 20260903131608 | 61 | 217 | 7.0 | 18.0 | 0.00 | 0.20 | 0.06 | 73 | 1009.4 |
| 20260903130108 | 62 | 237 | 9.0 | 17.0 | 0.00 | 0.20 | 0.06 | 73 | 1009.2 |
| 20260903124554 | 62 | 284 | 4.0 | 14.0 | 0.00 | 0.20 | 0.06 | 76 | 1009.1 |
| 20260903123107 | 61 | 259 | 5.0 | 13.0 | 0.00 | 0.20 | 0.06 | 78 | 1009.3 |
| 20260903121620 | 61 | 293 | 4.0 | 12.0 | 0.00 | 0.20 | 0.06 | 78 | 1009.6 |
| 20260903120109 | 61 | 332 | 3.0 | 11.0 | 0.00 | 0.20 | 0.06 | 78 | 1009.2 |
| 20260903114555 | 61 | 259 | 4.0 | 13.0 | 0.00 | 0.20 | 0.06 | 76 | 1009.1 |
| 20260903113119 | 62 | 186 | 4.0 | 12.0 | 0.00 | 0.20 | 0.06 | 76 | 1009.3 |
| 20260903111600 | 61 | 222 | 6.0 | 15.0 | 0.00 | 0.20 | 0.06 | 75 | 1009.4 |
| 20260903110127 | 61 | 262 | 5.0 | 14.0 | 0.00 | 0.20 | 0.06 | 78 | 1009.1 |
| 20260903104600 | 62 | 284 | 7.0 | 17.0 | 0.00 | 0.20 | 0.06 | 77 | 1009.0 |
| 20260903103102 | 62 | 276 | 3.0 | 15.0 | 0.00 | 0.20 | 0.06 | 78 | 1009.1 |
| 20260903101551 | 60 | 275 | 8.0 | 13.0 | 0.00 | 0.20 | 0.06 | 78 | 1009.0 |
| 20260903100034 | 61 | 216 | 5.0 | 14.0 | 0.00 | 0.20 | 0.06 | 79 | 1009.4 |
| 20260903094534 | 60 | 289 | 10.0 | 17.0 | 0.00 | 0.22 | 0.06 | 77 | 1009.0 |
| 20260903093007 | 60 | 193 | 7.0 | 18.0 | 0.00 | 0.22 | 0.06 | 78 | 1009.0 |
| 20260903091606 | 60 | 271 | 7.0 | 15.0 | 0.00 | 0.22 | 0.06 | 80 | 1009.3 |
| 20260903090114 | 59 | 205 | 8.0 | 17.0 | 0.00 | 0.22 | 0.06 | 82 | 1009.1 |
| 20260903084549 | 57 | 284 | 5.0 | 16.0 | 0.00 | 0.22 | 0.06 | 84 | 1009.0 |
| 20260903083059 | 56 | 238 | 4.0 | 10.0 | 0.00 | 0.22 | 0.06 | 86 | 1008.9 |
| 20260903081553 | 57 | 222 | 3.0 | 14.0 | 0.00 | 0.22 | 0.06 | 86 | 1008.6 |
| 20260903080112 | 56 | 300 | 5.0 | 11.0 | 0.00 | 0.22 | 0.06 | 87 | 1008.4 |
| 20260903074554 | 56 | 259 | 6.0 | 18.0 | 0.00 | 0.22 | 0.06 | 87 | 1008.6 |
| 20260903073113 | 56 | 244 | 6.0 | 17.0 | 0.00 | 0.22 | 0.06 | 87 | 1008.6 |
| 20260903071558 | 56 | 254 | 6.0 | 13.0 | 0.00 | 0.22 | 0.06 | 88 | 1008.4 |
| 20260903070126 | 55 | 286 | 8.0 | 17.0 | 0.00 | 0.22 | 0.06 | 89 | 1008.3 |
| 20260903064559 | 55 | 222 | 6.0 | 18.0 | 0.00 | 0.22 | 0.06 | 90 | 1007.9 |
| 20260903063115 | 55 | 248 | 6.0 | 14.0 | 0.00 | 0.22 | 0.06 | 91 | 1008.0 |
| 20260903061602 | 55 | 236 | 7.0 | 18.0 | 0.00 | 0.22 | 0.06 | 92 | 1007.9 |
| 20260903060122 | 56 | 257 | 8.0 | 19.0 | 0.00 | 0.22 | 0.06 | 93 | 1007.7 |
| 20260903054531 | 56 | 261 | 7.0 | 14.0 | 0.00 | 0.23 | 0.06 | 94 | 1007.3 |
| 20260903053006 | 56 | 230 | 5.0 | 18.0 | 0.00 | 0.23 | 0.06 | 94 | 1007.2 |
| 20260903051507 | 56 | 246 | 6.0 | 19.0 | 0.00 | 0.23 | 0.06 | 94 | 1006.9 |
| 20260903050125 | 57 | 225 | 6.0 | 18.0 | 0.00 | 0.23 | 0.06 | 94 | 1006.7 |
| 20260903044515 | 57 | 252 | 5.0 | 11.0 | 0.00 | 0.23 | 0.06 | 94 | 1006.8 |
| 20260903043150 | 57 | 246 | 5.0 | 17.0 | 0.00 | 0.23 | 0.06 | 94 | 1006.6 |
| 20260903041509 | 57 | 252 | 5.0 | 15.0 | 0.00 | 0.23 | 0.06 | 94 | 1006.5 |
| 20260903040139 | 57 | 274 | 7.0 | 15.0 | 0.00 | 0.23 | 0.06 | 94 | 1006.6 |
| 20260903034522 | 58 | 296 | 5.0 | 15.0 | 0.00 | 0.23 | 0.06 | 94 | 1006.4 |
| 20260903033153 | 58 | 252 | 8.0 | 16.0 | 0.00 | 0.23 | 0.06 | 95 | 1006.4 |
| 20260903031602 | 58 | 198 | 7.0 | 16.0 | 0.00 | 0.23 | 0.06 | 95 | 1006.3 |
| 20260903030114 | 58 | 286 | 9.0 | 14.0 | 0.00 | 0.23 | 0.06 | 94 | 1006.3 |
| 20260903024555 | 58 | 254 | 5.0 | 15.0 | 0.00 | 0.23 | 0.06 | 94 | 1006.4 |
| 20260903023106 | 58 | 252 | 4.0 | 13.0 | 0.00 | 0.23 | 0.06 | 94 | 1006.4 |
| 20260903021559 | 58 | 213 | 5.0 | 17.0 | 0.01 | 0.23 | 0.06 | 95 | 1006.4 |
| 20260903020116 | 58 | 278 | 6.0 | 18.0 | 0.01 | 0.23 | 0.06 | 95 | 1006.3 |
| 20260903014631 | 59 | 224 | 8.0 | 21.0 | 0.01 | 0.23 | 0.06 | 95 | 1006.2 |
| 20260903013128 | 59 | 286 | 6.0 | 20.0 | 0.02 | 0.23 | 0.06 | 95 | 1006.1 |
| 20260903011501 | 60 | 296 | 8.0 | 23.0 | 0.01 | 0.22 | 0.06 | 95 | 1006.0 |
| 20260903010055 | 61 | 198 | 5.0 | 15.0 | 0.01 | 0.22 | 0.06 | 95 | 1006.0 |
| 20260903004604 | 61 | 245 | 4.0 | 12.0 | 0.01 | 0.22 | 0.06 | 95 | 1006.0 |
| 20260903003117 | 61 | 267 | 7.0 | 16.0 | 0.00 | 0.21 | 0.05 | 96 | 1005.9 |
| 20260903001559 | 61 | 222 | 5.0 | 13.0 | 0.00 | 0.21 | 0.05 | 96 | 1005.9 |
| 20260903000116 | 61 | 236 | 7.0 | 15.0 | 0.03 | 0.21 | 0.05 | 96 | 1006.1 |
| 20260902234508 | 61 | 269 | 4.0 | 10.0 | 0.07 | 0.21 | 0.05 | 96 | 1006.1 |
| 20260902233125 | 61 | 225 | 7.0 | 17.0 | 0.07 | 0.21 | 0.05 | 96 | 1006.2 |
| 20260902231501 | 61 | 236 | 8.0 | 16.0 | 0.07 | 0.21 | 0.05 | 96 | 1006.1 |
| 20260902230111 | 61 | 232 | 7.0 | 15.0 | 0.03 | 0.17 | 0.01 | 96 | 1006.4 |
| 20260902224606 | 61 | 221 | 5.0 | 12.0 | 0.00 | 0.14 | 0.14 | 96 | 1006.4 |
| 20260902223110 | 61 | 215 | 6.0 | 16.0 | 0.00 | 0.14 | 0.14 | 96 | 1006.5 |
| 20260902221553 | 60 | 229 | 6.0 | 12.0 | 0.00 | 0.14 | 0.14 | 96 | 1006.6 |
| 20260902220111 | 60 | 277 | 6.0 | 15.0 | 0.00 | 0.14 | 0.14 | 96 | 1006.5 |
| 20260902214612 | 60 | 199 | 5.0 | 10.0 | 0.03 | 0.14 | 0.14 | 96 | 1006.5 |
| 20260902213116 | 59 | 194 | 6.0 | 11.0 | 0.05 | 0.14 | 0.14 | 96 | 1006.8 |
| 20260902211548 | 59 | 200 | 4.0 | 17.0 | 0.07 | 0.14 | 0.14 | 96 | 1006.8 |
| 20260902210105 | 59 | 179 | 5.0 | 13.0 | 0.07 | 0.14 | 0.14 | 96 | 1006.7 |
| 20260902204602 | 59 | 198 | 4.0 | 8.0 | 0.04 | 0.11 | 0.11 | 96 | 1007.3 |
| 20260902203109 | 59 | 176 | 4.0 | 11.0 | 0.02 | 0.09 | 0.09 | 97 | 1007.5 |
| 20260902201551 | 58 | 196 | 3.0 | 16.0 | 0.02 | 0.07 | 0.07 | 96 | 1007.3 |
| 20260902200104 | 58 | 187 | 5.0 | 14.0 | 0.02 | 0.07 | 0.07 | 96 | 1007.4 |
| 20260902194557 | 58 | 196 | 6.0 | 15.0 | 0.02 | 0.07 | 0.07 | 96 | 1007.6 |
| 20260902193111 | 58 | 157 | 4.0 | 9.0 | 0.02 | 0.07 | 0.07 | 96 | 1008.0 |
| 20260902191517 | 58 | 179 | 5.0 | 8.0 | 0.00 | 0.06 | 0.06 | 96 | 1008.1 |
| 20260902190153 | 58 | 111 | 3.0 | 7.0 | 0.00 | 0.06 | 0.06 | 96 | 1008.1 |
| 20260902184540 | 58 | 142 | 2.0 | 7.0 | 0.00 | 0.06 | 0.06 | 96 | 1008.2 |
| 20260902183105 | 58 | 155 | 3.0 | 8.0 | 0.01 | 0.06 | 0.06 | 96 | 1008.4 |
| 20260902181547 | 58 | 176 | 2.0 | 5.0 | 0.01 | 0.06 | 0.06 | 96 | 1008.8 |
| 20260902180050 | 59 | 169 | 2.0 | 5.0 | 0.01 | 0.06 | 0.06 | 96 | 1008.9 |
| 20260902174551 | 59 | 105 | 2.0 | 6.0 | 0.01 | 0.06 | 0.06 | 96 | 1009.2 |
| 20260902173107 | 58 | 36 | 1.0 | 3.0 | 0.00 | 0.06 | 0.05 | 96 | 1009.4 |
| 20260902171543 | 59 | 72 | 1.0 | 3.0 | 0.00 | 0.06 | 0.05 | 96 | 1009.7 |
| 20260902170059 | 59 | 53 | 1.0 | 6.0 | 0.01 | 0.06 | 0.05 | 96 | 1009.7 |
| 20260902164539 | 59 | 61 | 1.0 | 3.0 | 0.01 | 0.19 | 0.05 | 96 | 1009.9 |
| 20260902163016 | 58 | 82 | 0.0 | 3.0 | 0.01 | 0.19 | 0.05 | 96 | 1010.1 |
| 20260902161544 | 58 | 64 | 0.0 | 5.0 | 0.01 | 0.19 | 0.05 | 96 | 1010.2 |
| 20260902160105 | 58 | 82 | 0.0 | 3.0 | 0.00 | 0.18 | 0.04 | 96 | 1010.5 |
| 20260902154559 | 58 | 76 | 1.0 | 4.0 | 0.00 | 0.18 | 0.04 | 96 | 1010.7 |
| 20260902153112 | 57 | 64 | 0.0 | 2.0 | 0.00 | 0.18 | 0.04 | 96 | 1010.9 |
| 20260902151507 | 57 | 64 | 1.0 | 4.0 | 0.01 | 0.18 | 0.04 | 96 | 1011.0 |
| 20260902150155 | 57 | 67 | 0.0 | 3.0 | 0.01 | 0.18 | 0.04 | 96 | 1011.2 |
| 20260902144516 | 56 | 78 | 1.0 | 3.0 | 0.01 | 0.18 | 0.04 | 96 | 1011.3 |
| 20260902143118 | 56 | 30 | 0.0 | 3.0 | 0.01 | 0.18 | 0.04 | 96 | 1011.5 |
| 20260902141605 | 56 | 63 | 0.0 | 1.0 | 0.00 | 0.17 | 0.03 | 96 | 1011.6 |